Terminal Aerodrome Forecast
Issued by NWS Mt. Holly, NJ

Home | Current Version | Previous Version | Text Only | Print | Product List | Glossary On
Versions: 1 2 3 4 5 6 7 8 9 10 11 12 13 14
000
FTUS41 KPHI 232300
TAFABE
TAF
KABE 232334Z 2400/2424 32018G25KT P6SM BKN045
     FM240500 30014KT P6SM SCT250
     FM241300 31014G26KT P6SM SKC=

USA.gov is the U.S. government's official web portal to all federal, state and local government web resources and services.